[[{"header":{"parameterUnit":"m.s-1","parameterCategory":2,"la1":30.2991,"la2":30.254,"lo1":-89.0895,"lo2":-89.0444,"dy":0.0017,"dx":0.0017,"nx":28,"ny":28,"refTime":"2025-07-11T03:00:00:Z","depth":"0","parameterNumber":2,"parameterNumberName":"U-component_of_CURRENTS"},"data":[0,0,0,0,0,0,0,0,0,0,0,0,0,0,0,0,0,0,0,0,0,0,0,0,0,0,0,0,0,0,0,0,0,0,0,0,0,0,0,0,0,0,0,0,0,0,0,0,0,0,0,0,0,0,0,0,0,0,0.3121,0.3123,0,0.328,0.3281,0.3283,0.3276,0.3274,0.3273,0.3271,0.3393,0.3397,0.3402,0,0,0,0,0,0,0,0,0,0,0,0,0,0.2934,0.2936,0.3121,0.3124,0.3126,0.328,0.3281,0.3283,0.3276,0.3274,0.3272,0.327,0.3391,0.3397,0.3403,0,0,0,0,0,0,0,0,0,0,0,0,0,0.3041,0.2937,0.3121,0.3145,0.3149,0.3279,0.3281,0.3283,0.3277,0.3274,0.3272,0.3269,0.3389,0.3396,0.3403,0.3501,0,0,0.3426,0.3429,0,0,0,0,0,0,0,0,0.3034,0.3047,0.3139,0.3144,0.3149,0.326,0.326,0.3356,0.3277,0.3223,0.3271,0.3268,0.335,0.3361,0.3389,0.3507,0.3512,0.3426,0.3431,0.3434,0.3436,0,0,0,0,0,0,0,0.3027,0.3041,0.3179,0.3142,0.3148,0.319,0.3201,0.3279,0.3295,0.3227,0.3229,0.3255,0.3351,0.3382,0.3392,0.3514,0.3426,0.3433,0.3437,0.344,0.3823,0.3828,0,0,0,0,0,0,0.3015,0.3034,0.3174,0.3184,0.309,0.3195,0.3207,0.3223,0.3295,0.3305,0.3258,0.3255,0.3371,0.3384,0.3396,0.358,0.3434,0.3441,0.3445,0.3817,0.3824,0.383,0,0,0,0,0,0,0.301,0.3026,0.3167,0.3117,0.3138,0.3201,0.3219,0.3227,0.3273,0.3319,0.3327,0.3296,0.337,0.3386,0.3493,0.3581,0.3444,0.3451,0.381,0.3819,0.3827,0.3906,0,0,0,0,0,0,0.3004,0.3022,0.3037,0.3116,0.3141,0.33,0.3223,0.3232,0.3295,0.3293,0.3355,0.3362,0.3369,0.3482,0.35,0.3589,0.3456,0.3803,0.3814,0.3824,0.3896,0.3916,0.3933,0,0,0,0,0,0.2996,0.3057,0.3036,0.3055,0.3156,0.3306,0.3326,0.3355,0.3299,0.3373,0.3383,0.3361,0.3564,0.3492,0.3512,0.3605,0.3798,0.3811,0.3824,0.3887,0.3912,0.3933,0,0,0,0,0,0,0.3003,0.3064,0.3043,0.312,0.322,0.3308,0.3378,0.3377,0.3443,0.3423,0.3424,0.3438,0.3573,0.3593,0.3513,0.3756,0.3684,0.3702,0.3726,0.375,0.3768,0.3718,0.3462,0,0,0,0,0,0.3004,0.3051,0.3133,0.3201,0.3251,0.3306,0.3364,0.3388,0.3453,0.3477,0.3509,0.3561,0.3648,0.3693,0.3775,0.3901,0.389,0.3984,0.4003,0.4018,0.3998,0.4121,0.4146,0.3873,0.3873,0.3873,0,0,0.3027,0.3068,0.3094,0.3205,0.3269,0.3378,0.3337,0.3453,0.3522,0.3485,0.3586,0.3633,0.37,0.3838,0.3902,0.3859,0.4083,0.4034,0.4046,0.4017,0.4137,0.4162,0.4185,0.3882,0.388,0.3879,0,0,0.3132,0.3135,0.322,0.3301,0.3413,0.3456,0.3493,0.3592,0.3618,0.3735,0.3719,0.3804,0.3941,0.3993,0.4037,0.4217,0.4182,0.4271,0.4317,0.4438,0.4459,0.4478,0.4439,0.4454,0.4275,0.4275,0.4275,0,0.3147,0.3249,0.3284,0.3394,0.3449,0.3491,0.3598,0.3666,0.3777,0.3792,0.3787,0.3963,0.4013,0.4151,0.4207,0.4254,0.4266,0.4211,0.4455,0.4474,0.4492,0.4448,0.4464,0.428,0.428,0.4279,0.4278,0,0.3325,0.3394,0.3469,0.358,0.3657,0.3773,0.3843,0.3906,0.3918,0.3957,0.4089,0.4164,0.4248,0.4313,0.4307,0.4475,0.4417,0.4462,0.4375,0.4523,0.4468,0.4482,0.4288,0.4286,0.4284,0.4283,0,0,0.3361,0.3547,0.3563,0.3612,0.3744,0.3821,0.3928,0.4028,0.406,0.4176,0.4236,0.4395,0.4392,0.4443,0.4476,0.4571,0.4685,0.4565,0.4569,0.4479,0.4848,0.4502,0.4483,0.4788,0.4793,0.4797,0.4734,0,0.3478,0.3682,0.3731,0.3882,0.3983,0.4001,0.4085,0.4156,0.4209,0.4287,0.4359,0.446,0.4463,0.4503,0.4608,0.4687,0.4738,0.4689,0.4756,0.4754,0.4396,0.4496,0.4264,0.4165,0.4747,0.4749,0.4751,0,0.3621,0.3725,0.3897,0.3984,0.402,0.4093,0.415,0.4235,0.433,0.4364,0.4456,0.4512,0.4644,0.4644,0.4814,0.479,0.4809,0.4851,0.4852,0.4505,0.4438,0.4131,0.4168,0.4076,0.4772,0.477,0.4769,0,0.3638,0.3812,0.3929,0.3976,0.4109,0.4126,0.4169,0.4248,0.4289,0.4409,0.4445,0.4608,0.4672,0.4805,0.4843,0.4868,0.4983,0.5038,0.4719,0.469,0.4484,0.4427,0.4396,0.5144,0.5144,0.5144,0.5144,0,0.3748,0.3834,0.3933,0.4006,0.4072,0.4131,0.4189,0.4244,0.4318,0.4369,0.4478,0.454,0.4733,0.4802,0.4863,0.4776,0.5,0.4698,0.4674,0.4494,0.4442,0.4341,0.4342,0.5142,0.5142,0.5143,0.5143,0,0.3813,0.3893,0.4005,0.4095,0.4104,0.4145,0.4185,0.4222,0.4287,0.4356,0.4396,0.4517,0.457,0.4654,0.4809,0.4725,0.4564,0.4644,0.431,0.4243,0.379,0.3803,0.3521,0.3451,0.428,0.4271,0.4264,0,0.3903,0.3972,0.404,0.4052,0.4096,0.4137,0.4155,0.4213,0.424,0.4326,0.4354,0.4402,0.4382,0.4365,0.4286,0.4216,0.423,0.3903,0.3903,0.3686,0.3694,0.3591,0.3554,0.3663,0.3651,0.3642,0.3634,0,0.4031,0.4023,0.409,0.4093,0.4101,0.4108,0.4128,0.4136,0.4188,0.4207,0.4187,0.4165,0.4059,0.3843,0.3674,0.3641,0.3658,0.3689,0.3662,0.332,0.3028,0.2973,0.3689,0.355,0.3558,0.3564,0.3569,0.3572,0.4073,0.4109,0.4121,0.4095,0.409,0.4024,0.3959,0.3957,0.3925,0.382,0.3955,0.374,0.3527,0.323,0.3168,0.2829,0.2981,0.2733,0.2793,0.2727,0.2563,0.2947,0.2659,0.2662,0.2665,0.2668,0.267,0,0.4098,0.4098,0.4102,0.4029,0.3925,0.3938,0.3881,0.3745,0.36,0.3508,0.3404,0.3028,0.2738,0.2563,0.2221,0.2031,0.2025,0.1967,0.1922,0.1967,0.2488,0.2366,0.1764,0.1764,0.1764,0.1765,0.1765,0.1765,0.4105,0.4093,0.4052,0.3839,0.375,0.3532,0.3436,0.3278,0.3143,0.2752,0.2441,0.2342,0.2178,0.1862,0.1599,0.1549,0.153,0.1275,0.1435,0.195,0.2032,0.2111,0.2,0.1331,0.1331,0.082,0.0816,0.0813]},{"header":{"parameterUnit":"m.s-1","parameterCategory":2,"la1":30.2991,"la2":30.254,"lo1":-89.0895,"lo2":-89.0444,"dy":0.0017,"dx":0.0017,"nx":28,"ny":28,"refTime":"2025-07-11T03:00:00:Z","depth":"0","parameterNumber":3,"parameterNumberName":"V-component_of_CURRENTS"},"data":[0,0,0,0,0,0,0,0,0,0,0,0,0,0,0,0,0,0,0,0,0,0,0,0,0,0,0,0,0,0,0,0,0,0,0,0,0,0,0,0,0,0,0,0,0,0,0,0,0,0,0,0,0,0,0,0,0,0,0.0189,0.0189,0,0.0173,0.0173,0.0173,0.0183,0.0183,0.0184,0.0184,0.028,0.0282,0.0285,0,0,0,0,0,0,0,0,0,0,0,0,0,0.0227,0.0227,0.0189,0.0189,0.0188,0.0173,0.0173,0.0173,0.0183,0.0183,0.0184,0.0184,0.0279,0.0282,0.0285,0,0,0,0,0,0,0,0,0,0,0,0,0,0.0214,0.0227,0.0189,0.0189,0.0188,0.0173,0.0173,0.0173,0.0183,0.0183,0.0184,0.0184,0.0278,0.0282,0.0285,0.0303,0,0,0.0296,0.0298,0,0,0,0,0,0,0,0,0.0215,0.0213,0.0189,0.0189,0.0188,0.0177,0.0222,0.0221,0.0183,0.0189,0.0184,0.0184,0.0254,0.0259,0.0259,0.0308,0.0312,0.0297,0.0299,0.03,0.0301,0,0,0,0,0,0,0,0.0216,0.0214,0.0187,0.0189,0.0188,0.0189,0.0187,0.0221,0.0225,0.0188,0.0188,0.0181,0.0255,0.0255,0.0262,0.0313,0.0297,0.03,0.0302,0.0303,0.0483,0.0486,0,0,0,0,0,0,0.0211,0.0215,0.0187,0.0186,0.0199,0.0188,0.0186,0.0184,0.0222,0.0226,0.0181,0.0181,0.0249,0.0257,0.0265,0.0376,0.03,0.0304,0.0306,0.0481,0.0484,0.0487,0,0,0,0,0,0,0.0212,0.0209,0.0188,0.0197,0.0194,0.0186,0.0183,0.0183,0.0188,0.0214,0.0222,0.0185,0.025,0.026,0.0308,0.0377,0.0305,0.0309,0.0478,0.0482,0.0485,0.0543,0,0,0,0,0,0,0.0213,0.0209,0.021,0.0197,0.0193,0.0192,0.0183,0.0182,0.0181,0.0182,0.0221,0.0229,0.0251,0.0303,0.0312,0.038,0.0312,0.0474,0.0479,0.0484,0.0537,0.0548,0.0557,0,0,0,0,0,0.0214,0.0211,0.021,0.0207,0.0193,0.0192,0.0191,0.0188,0.0181,0.0192,0.0217,0.0228,0.0342,0.0307,0.0317,0.0389,0.0472,0.0478,0.0484,0.0533,0.0546,0.0557,0,0,0,0,0,0,0.0225,0.0211,0.021,0.0202,0.0204,0.0193,0.0194,0.0189,0.0214,0.0216,0.0243,0.0254,0.0328,0.0345,0.0305,0.0457,0.0417,0.0425,0.0451,0.0464,0.0473,0.0522,0.0315,0,0,0,0,0,0.0227,0.0224,0.0215,0.0211,0.021,0.0203,0.0201,0.02,0.0212,0.0221,0.025,0.0297,0.036,0.0396,0.0439,0.0509,0.0528,0.0569,0.0579,0.0587,0.0636,0.0735,0.0758,0.0506,0.0506,0.0506,0,0,0.0229,0.022,0.0219,0.0213,0.0211,0.0235,0.0204,0.0203,0.0246,0.0231,0.0298,0.0322,0.0382,0.0467,0.0505,0.0491,0.0651,0.0594,0.0601,0.0647,0.0744,0.0768,0.079,0.051,0.0509,0.0508,0,0,0.0237,0.0226,0.0233,0.0241,0.0238,0.0246,0.0248,0.0248,0.0273,0.0321,0.0344,0.0413,0.0474,0.0556,0.0602,0.0695,0.0691,0.0701,0.0804,0.0898,0.092,0.094,0.0914,0.0932,0.0717,0.0717,0.0717,0,0.0242,0.0256,0.0236,0.0254,0.0277,0.0258,0.0296,0.032,0.0342,0.0401,0.0355,0.0517,0.0538,0.071,0.0734,0.0725,0.0729,0.0747,0.0912,0.0932,0.0952,0.0922,0.094,0.072,0.072,0.072,0.0719,0,0.0266,0.0286,0.029,0.0323,0.0345,0.0366,0.04,0.0442,0.0459,0.0502,0.0638,0.067,0.0785,0.0796,0.0788,0.0961,0.0896,0.0899,0.0879,0.0981,0.0941,0.0959,0.0725,0.0724,0.0723,0.0722,0,0,0.0261,0.0304,0.0308,0.0358,0.0389,0.042,0.0503,0.0603,0.0704,0.0731,0.0884,0.0966,0.0987,0.1043,0.1056,0.1131,0.1213,0.1072,0.1075,0.1039,0.1338,0.1225,0.1232,0.1242,0.1248,0.1252,0.1223,0,0.0296,0.0361,0.0374,0.0469,0.0518,0.0556,0.0654,0.0744,0.0816,0.0954,0.1032,0.1157,0.1084,0.1144,0.1214,0.1238,0.1279,0.1216,0.1253,0.1253,0.1138,0.1259,0.122,0.1189,0.1241,0.1244,0.1246,0,0.0323,0.0374,0.0464,0.059,0.0617,0.0677,0.0858,0.094,0.112,0.1182,0.1318,0.1364,0.1502,0.1409,0.1509,0.1467,0.1416,0.1399,0.1398,0.1307,0.118,0.1115,0.122,0.1227,0.1274,0.1271,0.1269,0,0.0355,0.0446,0.0534,0.0568,0.0695,0.0773,0.0854,0.1019,0.114,0.1338,0.1442,0.159,0.167,0.1688,0.1615,0.1582,0.168,0.1631,0.1472,0.1457,0.1446,0.1423,0.1575,0.1711,0.1711,0.1711,0.1711,0,0.0397,0.0468,0.0559,0.0611,0.0763,0.0826,0.1015,0.1118,0.1307,0.1485,0.1562,0.1712,0.175,0.1792,0.1706,0.1636,0.1747,0.1528,0.1489,0.145,0.1429,0.1449,0.1436,0.1709,0.171,0.171,0.171,0,0.0421,0.0466,0.0583,0.0723,0.0777,0.0886,0.1086,0.124,0.1376,0.161,0.1679,0.1836,0.1873,0.1839,0.1852,0.174,0.1669,0.1619,0.1502,0.1452,0.13,0.1289,0.1373,0.1409,0.1469,0.1467,0.1465,0,0.045,0.0504,0.0657,0.0746,0.081,0.0973,0.1111,0.127,0.1426,0.1678,0.1803,0.1903,0.1981,0.1915,0.176,0.1602,0.1597,0.1445,0.1407,0.1334,0.1295,0.1281,0.1306,0.1367,0.1364,0.1362,0.1361,0,0.053,0.0565,0.0664,0.0826,0.0966,0.1133,0.1317,0.1437,0.1641,0.1805,0.1993,0.2062,0.1987,0.1849,0.1618,0.1504,0.1456,0.1393,0.1422,0.1336,0.124,0.1237,0.125,0.1342,0.1344,0.1345,0.1346,0.1347,0.0604,0.0675,0.0794,0.0945,0.1095,0.1271,0.1387,0.1577,0.1782,0.1999,0.207,0.2136,0.1948,0.1638,0.1507,0.1255,0.1293,0.1184,0.1194,0.1199,0.122,0.1124,0.1113,0.1114,0.1114,0.1114,0.1115,0,0.0726,0.0789,0.0924,0.1091,0.1226,0.1298,0.1523,0.162,0.181,0.2,0.212,0.2009,0.1793,0.1565,0.1224,0.1105,0.1106,0.1066,0.1105,0.1159,0.1172,0.1156,0.1031,0.1031,0.1031,0.1031,0.1031,0.1031,0.0812,0.093,0.0972,0.1175,0.1274,0.1424,0.1522,0.1667,0.1798,0.1926,0.1933,0.1956,0.1816,0.1352,0.1125,0.1074,0.112,0.1007,0.1091,0.1134,0.1148,0.1162,0.1151,0.1027,0.1027,0.11,0.11,0.1101]}],[{"header":{"parameterUnit":"m.s-1","parameterCategory":2,"la1":30.2991,"la2":30.254,"lo1":-89.0895,"lo2":-89.0444,"dy":0.0017,"dx":0.0017,"nx":28,"ny":28,"refTime":"2025-07-11T03:00:00:Z","depth":"2","parameterNumber":2,"parameterNumberName":"U-component_of_CURRENTS"},"data":[0,0,0,0,0,0,0,0,0,0,0,0,0,0,0,0,0,0,0,0,0,0,0,0,0,0,0,0,0,0,0,0,0,0,0,0,0,0,0,0,0,0,0,0,0,0,0,0,0,0,0,0,0,0,0,0,0,0,0.2533,0.2534,0,0.2624,0.2625,0.2625,0.2572,0.257,0.2568,0.2566,0.2727,0.2733,0.2739,0,0,0,0,0,0,0,0,0,0,0,0,0,0.2392,0.2394,0.2532,0.2534,0.2535,0.2624,0.2625,0.2626,0.2573,0.257,0.2567,0.2565,0.2725,0.2732,0.274,0,0,0,0,0,0,0,0,0,0,0,0,0,0.2462,0.2395,0.2532,0.2523,0.2523,0.2624,0.2625,0.2626,0.2573,0.257,0.2566,0.2563,0.2722,0.2731,0.2741,0.2866,0,0,0.277,0.2774,0,0,0,0,0,0,0,0,0.2458,0.2466,0.2522,0.2523,0.2524,0.2587,0.2635,0.2711,0.2574,0.255,0.2566,0.2562,0.2692,0.2703,0.2721,0.2874,0.2881,0.2771,0.2777,0.2781,0.2783,0,0,0,0,0,0,0,0.2453,0.2463,0.2564,0.2524,0.2526,0.2542,0.2547,0.2649,0.2636,0.2552,0.2549,0.2567,0.2691,0.2712,0.2725,0.2883,0.2771,0.2779,0.2785,0.2789,0.3205,0.321,0,0,0,0,0,0,0.245,0.2458,0.2562,0.2568,0.2487,0.2547,0.2552,0.2567,0.2634,0.2641,0.257,0.2564,0.2697,0.2714,0.2731,0.2944,0.2781,0.279,0.2795,0.32,0.3206,0.3212,0,0,0,0,0,0,0.2446,0.2458,0.2558,0.2518,0.2532,0.2553,0.257,0.257,0.2608,0.2647,0.2654,0.2608,0.2695,0.2717,0.2878,0.2947,0.2794,0.2803,0.3193,0.3202,0.3209,0.3333,0,0,0,0,0,0,0.2442,0.2456,0.2459,0.2518,0.2534,0.2653,0.2573,0.2575,0.2625,0.2619,0.2685,0.2693,0.2694,0.2865,0.2888,0.2957,0.281,0.3186,0.3197,0.3206,0.3322,0.3344,0.3363,0,0,0,0,0,0.2436,0.2412,0.2459,0.2471,0.254,0.2658,0.267,0.2669,0.2631,0.2683,0.2738,0.2692,0.2942,0.2879,0.2905,0.2978,0.3182,0.3194,0.3206,0.3313,0.334,0.3362,0,0,0,0,0,0,0.2359,0.2409,0.2458,0.2457,0.2588,0.2651,0.2646,0.27,0.2782,0.2771,0.2791,0.281,0.2967,0.2981,0.291,0.3129,0.3044,0.3062,0.3117,0.3143,0.3163,0.3091,0.2818,0,0,0,0,0,0.2356,0.2369,0.247,0.251,0.2524,0.2613,0.2652,0.2712,0.2792,0.2819,0.2868,0.2935,0.304,0.3095,0.3179,0.3328,0.3294,0.3385,0.3405,0.3422,0.3386,0.3517,0.3544,0.3251,0.3251,0.3251,0,0,0.236,0.2387,0.2404,0.25,0.2548,0.2616,0.2623,0.2719,0.2815,0.2835,0.2934,0.3024,0.3101,0.325,0.3319,0.3268,0.3473,0.3438,0.3451,0.3404,0.3532,0.356,0.3584,0.3259,0.3258,0.3257,0,0,0.239,0.2373,0.2403,0.2478,0.2597,0.2643,0.2688,0.2802,0.2859,0.3057,0.306,0.3194,0.3361,0.3406,0.3458,0.3654,0.3586,0.3691,0.3733,0.3864,0.3887,0.3908,0.3817,0.3829,0.3693,0.3693,0.3693,0,0.2404,0.2444,0.2454,0.2504,0.2546,0.2651,0.2731,0.2819,0.3009,0.3079,0.3107,0.3361,0.3424,0.3579,0.3635,0.3692,0.3692,0.3628,0.3886,0.3906,0.3925,0.3828,0.3839,0.3701,0.37,0.3699,0.3698,0,0.2472,0.2504,0.2506,0.2587,0.2648,0.2737,0.2847,0.2956,0.3053,0.3165,0.3386,0.3519,0.3667,0.3717,0.374,0.3906,0.3831,0.3902,0.3807,0.3961,0.3849,0.3858,0.3711,0.3709,0.3706,0.3705,0,0,0.2497,0.255,0.2553,0.2599,0.2694,0.2761,0.2882,0.3039,0.3124,0.3343,0.3486,0.3692,0.3778,0.3841,0.3911,0.3996,0.4108,0.4005,0.4009,0.3877,0.4256,0.3951,0.3929,0.4263,0.4267,0.4271,0.409,0,0.2569,0.265,0.2661,0.276,0.2788,0.2868,0.2971,0.3133,0.3272,0.3429,0.3607,0.3787,0.3826,0.3946,0.4052,0.4133,0.4154,0.4138,0.4155,0.4149,0.3836,0.394,0.3695,0.3497,0.4098,0.41,0.4101,0,0.2629,0.2661,0.2755,0.283,0.2843,0.2928,0.3056,0.3196,0.3402,0.3528,0.3728,0.3864,0.4046,0.4083,0.4243,0.4251,0.4242,0.4253,0.4251,0.3921,0.3866,0.3464,0.349,0.4115,0.4114,0.4113,0.4112,0,0.2633,0.2715,0.2782,0.2808,0.2914,0.2986,0.3071,0.3241,0.3354,0.3607,0.372,0.3959,0.4096,0.4227,0.4285,0.4309,0.4382,0.443,0.4086,0.4056,0.3814,0.3755,0.4485,0.4485,0.4486,0.4486,0.4487,0,0.2669,0.2728,0.279,0.2825,0.2914,0.3,0.3138,0.326,0.3446,0.3579,0.3793,0.3903,0.4163,0.4251,0.4296,0.419,0.4413,0.4049,0.4026,0.3836,0.3785,0.4321,0.4305,0.4479,0.4481,0.4482,0.4483,0,0.2708,0.2743,0.282,0.2903,0.2928,0.3013,0.3151,0.3269,0.343,0.3612,0.3713,0.3888,0.3955,0.4077,0.4194,0.4128,0.4114,0.3997,0.3628,0.3563,0.3656,0.365,0.3575,0.3563,0.3553,0.3545,0.3538,0,0.2732,0.2792,0.2859,0.29,0.2949,0.3056,0.3151,0.3283,0.3383,0.3572,0.3651,0.3732,0.3719,0.3674,0.3637,0.3554,0.3774,0.3216,0.3212,0.3595,0.3582,0.359,0.3596,0.2904,0.2892,0.2883,0.2875,0,0.2778,0.2829,0.2861,0.2959,0.3029,0.3093,0.321,0.3219,0.3392,0.3453,0.3433,0.3403,0.3311,0.3072,0.2964,0.2919,0.3233,0.3003,0.363,0.3154,0.2946,0.2938,0.297,0.2792,0.28,0.2806,0.2811,0.2814,0.2791,0.2838,0.2896,0.2983,0.3065,0.3087,0.3069,0.3102,0.3095,0.3063,0.3108,0.2914,0.2864,0.2473,0.2371,0.2306,0.2518,0.2452,0.2491,0.2537,0.2475,0.2261,0.1953,0.1956,0.1959,0.1962,0.1964,0,0.2778,0.2859,0.2928,0.2944,0.3004,0.3086,0.3084,0.2956,0.2789,0.2737,0.2588,0.2204,0.1967,0.1956,0.1701,0.1615,0.1728,0.1553,0.1742,0.1822,0.1894,0.1811,0.1106,0.1104,0.1101,0.1099,0,0,0.2789,0.2813,0.2836,0.2837,0.2907,0.2849,0.2804,0.2551,0.2408,0.2062,0.189,0.1883,0.1886,0.1496,0.1406,0.1228,0.1538,0.1162,0.1851,0.2158,0.2228,0.2398,0.2355,0,0,0,0,0]},{"header":{"parameterUnit":"m.s-1","parameterCategory":2,"la1":30.2991,"la2":30.254,"lo1":-89.0895,"lo2":-89.0444,"dy":0.0017,"dx":0.0017,"nx":28,"ny":28,"refTime":"2025-07-11T03:00:00:Z","depth":"2","parameterNumber":3,"parameterNumberName":"V-component_of_CURRENTS"},"data":[0,0,0,0,0,0,0,0,0,0,0,0,0,0,0,0,0,0,0,0,0,0,0,0,0,0,0,0,0,0,0,0,0,0,0,0,0,0,0,0,0,0,0,0,0,0,0,0,0,0,0,0,0,0,0,0,0,0,-0.0035,-0.0036,0,-0.0123,-0.0124,-0.0125,-0.0118,-0.0117,-0.0115,-0.0114,-0.0105,-0.0106,-0.0107,0,0,0,0,0,0,0,0,0,0,0,0,0,0.0036,0.0035,-0.0035,-0.0036,-0.0037,-0.0123,-0.0124,-0.0125,-0.0118,-0.0117,-0.0115,-0.0113,-0.0105,-0.0106,-0.0107,0,0,0,0,0,0,0,0,0,0,0,0,0,-0.0017,0.0035,-0.0035,-0.0044,-0.0046,-0.0123,-0.0124,-0.0126,-0.0118,-0.0116,-0.0115,-0.0113,-0.0104,-0.0106,-0.0107,-0.0155,0,0,-0.0111,-0.0112,0,0,0,0,0,0,0,0,-0.0014,-0.002,-0.0042,-0.0044,-0.0046,-0.0108,-0.0096,-0.0131,-0.0119,-0.009,-0.0114,-0.0112,-0.0099,-0.01,-0.0122,-0.0154,-0.0154,-0.0112,-0.0112,-0.0113,-0.0113,0,0,0,0,0,0,0,-0.001,-0.0016,-0.0069,-0.0043,-0.0046,-0.008,-0.0084,-0.0103,-0.0102,-0.0093,-0.0093,-0.0104,-0.0099,-0.0121,-0.0122,-0.0154,-0.0112,-0.0113,-0.0114,-0.0114,-0.009,-0.0088,0,0,0,0,0,0,0.0003,-0.0013,-0.0066,-0.0072,-0.0025,-0.0082,-0.0087,-0.009,-0.0104,-0.0105,-0.0105,-0.0103,-0.0119,-0.012,-0.0121,-0.0066,-0.0113,-0.0114,-0.0115,-0.0091,-0.009,-0.0088,0,0,0,0,0,0,0.0005,-0.0001,-0.0063,-0.0045,-0.0055,-0.0085,-0.0088,-0.0092,-0.0105,-0.0115,-0.0114,-0.0112,-0.0118,-0.0119,-0.0102,-0.0069,-0.0115,-0.0116,-0.0093,-0.0091,-0.0089,-0.0028,0,0,0,0,0,0,0.0008,0.0001,-0.0,-0.0044,-0.0056,-0.0109,-0.009,-0.0095,-0.0116,-0.0114,-0.0121,-0.0119,-0.0116,-0.01,-0.0104,-0.0072,-0.0118,-0.0095,-0.0092,-0.009,-0.0032,-0.0024,-0.0017,0,0,0,0,0,0.001,-0.001,0.0,-0.0007,-0.0054,-0.011,-0.012,-0.0134,-0.0118,-0.0136,-0.0109,-0.0118,-0.0084,-0.0101,-0.0105,-0.0073,-0.0097,-0.0093,-0.009,-0.0035,-0.0025,-0.0017,0,0,0,0,0,0,0.0014,-0.0013,-0.0002,-0.0028,-0.0061,-0.0108,-0.0141,-0.0136,-0.0137,-0.0123,-0.0114,-0.0111,-0.0076,-0.0091,-0.0109,-0.0055,-0.0087,-0.0084,-0.0043,-0.0035,-0.0027,0.0019,-0.0119,0,0,0,0,0,0.0017,-0.0002,-0.003,-0.0054,-0.0075,-0.0103,-0.0126,-0.0128,-0.0137,-0.0137,-0.014,-0.0118,-0.0072,-0.0065,-0.0054,-0.0047,-0.0024,-0.0023,-0.0015,-0.0009,0.0028,0.013,0.0151,-0.0077,-0.0077,-0.0077,0,0,0.0009,-0.0008,-0.0019,-0.0054,-0.0088,-0.011,-0.0113,-0.0153,-0.0136,-0.0135,-0.0129,-0.0102,-0.0063,-0.0028,-0.0015,-0.0035,0.0051,-0.0005,0.0,0.0035,0.0136,0.0159,0.0179,-0.0074,-0.0075,-0.0075,0,0,-0.0029,-0.0032,-0.0063,-0.0084,-0.0122,-0.013,-0.0136,-0.0176,-0.016,-0.0148,-0.0109,-0.0049,-0.0053,0.0015,0.0051,0.0101,0.0092,0.0085,0.0155,0.0253,0.0274,0.0292,0.0281,0.0299,0.0085,0.0085,0.0085,0,-0.0031,-0.0055,-0.0085,-0.0115,-0.0115,-0.0132,-0.0142,-0.0142,-0.0159,-0.0119,-0.0135,-0.0015,-0.0009,0.0129,0.0149,0.0124,0.0138,0.0116,0.0266,0.0286,0.0304,0.0289,0.0307,0.0088,0.0088,0.0087,0.0087,0,-0.0088,-0.0093,-0.0123,-0.014,-0.0152,-0.0171,-0.0159,-0.0148,-0.0122,-0.0099,0.0017,0.0064,0.0166,0.016,0.0168,0.031,0.0259,0.0268,0.0247,0.0331,0.0307,0.0326,0.0093,0.0092,0.0091,0.009,0,0,-0.0096,-0.0145,-0.0143,-0.0127,-0.0148,-0.0151,-0.012,-0.0071,0.001,0.0021,0.0158,0.0231,0.0289,0.0339,0.0377,0.0439,0.0536,0.0402,0.0405,0.0396,0.0681,0.0587,0.0596,0.0576,0.0581,0.0585,0.0588,0,-0.0111,-0.0138,-0.0156,-0.0141,-0.0143,-0.0117,-0.0065,-0.0013,0.0047,0.016,0.0268,0.0399,0.0354,0.0453,0.0514,0.0562,0.0599,0.053,0.0599,0.0599,0.0514,0.0622,0.0583,0.0581,0.0605,0.0608,0.061,0,-0.0142,-0.0137,-0.0136,-0.0078,-0.0072,-0.0059,0.0075,0.0126,0.0269,0.0338,0.0486,0.0568,0.0722,0.0676,0.0795,0.0753,0.0729,0.0722,0.0723,0.0644,0.0544,0.0516,0.0613,0.0641,0.0638,0.0636,0.0634,0,-0.0107,-0.0107,-0.0084,-0.0077,-0.0034,0.001,0.0065,0.0179,0.0287,0.0488,0.0616,0.0768,0.0918,0.0941,0.0931,0.0885,0.1019,0.0958,0.0834,0.0821,0.0811,0.079,0.1043,0.1043,0.1043,0.1043,0.1043,0,-0.0103,-0.0078,-0.0062,-0.0048,0.0046,0.0066,0.0207,0.0285,0.0465,0.0647,0.0745,0.0941,0.1002,0.1084,0.1013,0.0988,0.1095,0.088,0.0857,0.0817,0.0798,0.088,0.0861,0.1043,0.1043,0.1043,0.1043,0,-0.0093,-0.0092,-0.0056,0.0007,0.0046,0.0118,0.0277,0.0418,0.0558,0.0821,0.0918,0.1108,0.1196,0.118,0.1217,0.1114,0.1079,0.1028,0.0917,0.0882,0.0767,0.0751,0.0891,0.0889,0.0887,0.0885,0.0883,0,-0.0104,-0.0087,-0.0014,0.006,0.0084,0.0206,0.0335,0.0464,0.063,0.093,0.1093,0.1243,0.1356,0.1323,0.1186,0.1042,0.105,0.0902,0.0821,0.0809,0.0773,0.0759,0.0746,0.0791,0.0789,0.0787,0.0786,0,-0.0099,-0.008,-0.0045,0.0125,0.0241,0.0406,0.0584,0.0705,0.0929,0.1126,0.1379,0.1467,0.1417,0.1285,0.1078,0.097,0.0918,0.0856,0.0984,0.0821,0.0713,0.0676,0.0668,0.0771,0.0772,0.0773,0.0774,0.0775,-0.0093,-0.0057,0.0034,0.0229,0.0388,0.0638,0.075,0.0959,0.12,0.1467,0.1505,0.1576,0.1422,0.1108,0.0946,0.0762,0.0779,0.0693,0.0701,0.0709,0.0684,0.0579,0.0599,0.06,0.06,0.06,0.0601,0,-0.0043,0.0048,0.0185,0.0396,0.0627,0.0703,0.0971,0.1086,0.1343,0.1498,0.1616,0.1408,0.1243,0.1052,0.0745,0.0574,0.0576,0.0519,0.0565,0.058,0.0593,0.0564,0.0446,0.0445,0.0445,0.0444,0,0,-0.0013,0.0122,0.0237,0.0626,0.0788,0.1017,0.1155,0.1304,0.1407,0.1524,0.1514,0.1476,0.1252,0.0998,0.0782,0.0612,0.0632,0.057,0.0707,0.08,0.0815,0.07,0.0672,0,0,0,0,0]}],[{"header":{"parameterUnit":"m.s-1","parameterCategory":2,"la1":30.2991,"la2":30.254,"lo1":-89.0895,"lo2":-89.0444,"dy":0.0017,"dx":0.0017,"nx":28,"ny":28,"refTime":"2025-07-11T03:00:00:Z","depth":"4","parameterNumber":2,"parameterNumberName":"U-component_of_CURRENTS"},"data":[0,0,0,0,0,0,0,0,0,0,0,0,0,0,0,0,0,0,0,0,0,0,0,0,0,0,0,0,0,0,0,0,0,0,0,0,0,0,0,0,0,0,0,0,0,0,0,0,0,0,0,0,0,0,0,0,0,0,0.0531,0.0527,0,0.0294,0.0293,0.0292,0.0436,0.0441,0.0446,0.0451,0.0526,0.0523,0.0521,0,0,0,0,0,0,0,0,0,0,0,0,0,0.0869,0.0865,0.0531,0.0526,0.0522,0.0294,0.0293,0.0292,0.0435,0.0442,0.0448,0.0454,0.0527,0.0524,0.052,0,0,0,0,0,0,0,0,0,0,0,0,0,0.0704,0.0864,0.0532,0.0553,0.0551,0.0295,0.0293,0.0291,0.0434,0.0442,0.0449,0.0457,0.0528,0.0524,0.052,0.0338,0,0,0.0507,0.0505,0,0,0,0,0,0,0,0,0.0714,0.0694,0.0554,0.055,0.0548,0.0386,0.0438,0.0316,0.0432,0.0498,0.0451,0.046,0.049,0.049,0.045,0.0342,0.0345,0.0507,0.0504,0.0502,0.0501,0,0,0,0,0,0,0,0.0725,0.0703,0.0456,0.0548,0.0544,0.049,0.048,0.0415,0.0474,0.0493,0.0498,0.0439,0.0495,0.0453,0.0453,0.0346,0.0507,0.0503,0.05,0.0499,0.0435,0.0436,0,0,0,0,0,0,0.072,0.0714,0.0463,0.0447,0.0631,0.0477,0.0466,0.0446,0.0468,0.047,0.0433,0.0447,0.0457,0.0458,0.0457,0.0544,0.0502,0.0498,0.0496,0.0434,0.0436,0.0436,0,0,0,0,0,0,0.0729,0.0701,0.0473,0.0559,0.0525,0.0463,0.0438,0.0436,0.0453,0.0415,0.0431,0.0458,0.0463,0.0463,0.048,0.0538,0.0496,0.0492,0.0433,0.0435,0.0436,0.0527,0,0,0,0,0,0,0.074,0.0707,0.0705,0.056,0.0519,0.035,0.0428,0.0425,0.0392,0.0411,0.0438,0.045,0.0469,0.0486,0.0476,0.0532,0.0489,0.0432,0.0434,0.0436,0.0523,0.0532,0.0539,0,0,0,0,0,0.0754,0.0683,0.0708,0.0676,0.0516,0.0345,0.0322,0.0315,0.0386,0.037,0.0432,0.0453,0.0492,0.0481,0.0469,0.0526,0.0432,0.0434,0.0435,0.052,0.053,0.0539,0,0,0,0,0,0,0.0816,0.0684,0.0711,0.0608,0.0509,0.0365,0.0313,0.0318,0.0338,0.0403,0.0424,0.0435,0.0489,0.0463,0.0451,0.0514,0.0477,0.0477,0.0546,0.0555,0.0562,0.0607,0.0486,0,0,0,0,0,0.0824,0.0761,0.0631,0.0555,0.0505,0.0427,0.0365,0.037,0.0337,0.0357,0.0378,0.0423,0.046,0.048,0.0486,0.0468,0.0486,0.0508,0.0516,0.0523,0.0551,0.0649,0.067,0.0443,0.0443,0.0443,0,0,0.0815,0.0737,0.0701,0.0565,0.0496,0.0421,0.0417,0.033,0.0342,0.0354,0.0406,0.0437,0.0461,0.05,0.052,0.0501,0.0582,0.0525,0.0532,0.0556,0.0653,0.0676,0.0696,0.0444,0.0444,0.0444,0,0,0.073,0.0714,0.0632,0.0571,0.0463,0.0416,0.0403,0.0307,0.0359,0.0355,0.0427,0.0494,0.0481,0.0549,0.0575,0.0604,0.0623,0.0611,0.0683,0.0778,0.0799,0.0817,0.0815,0.0833,0.0614,0.0614,0.0614,0,0.0745,0.0646,0.0576,0.0501,0.047,0.0429,0.038,0.0374,0.0326,0.0386,0.0406,0.0502,0.052,0.0622,0.0669,0.063,0.0657,0.0651,0.0794,0.0813,0.083,0.0824,0.0842,0.0618,0.0618,0.0617,0.0617,0,0.0603,0.0565,0.0502,0.0443,0.0401,0.0336,0.0327,0.0353,0.0415,0.0437,0.0557,0.0585,0.0675,0.0679,0.0691,0.0829,0.0795,0.0797,0.078,0.086,0.0845,0.0863,0.0625,0.0623,0.0622,0.0621,0,0,0.0559,0.0434,0.0432,0.044,0.0398,0.0344,0.0397,0.0421,0.0516,0.0538,0.0672,0.0739,0.0807,0.0842,0.087,0.0936,0.1065,0.0935,0.0938,0.0948,0.1226,0.1093,0.1098,0.1116,0.1121,0.1125,0.1146,0,0.0497,0.0366,0.0348,0.0321,0.0273,0.0337,0.039,0.0455,0.0545,0.0662,0.0761,0.0875,0.0855,0.0939,0.1016,0.1034,0.1127,0.1055,0.1133,0.1134,0.1023,0.1121,0.1141,0.1159,0.1163,0.1166,0.1168,0,0.0385,0.0331,0.0265,0.0314,0.0313,0.033,0.0487,0.054,0.0711,0.0807,0.0954,0.1027,0.1134,0.1138,0.123,0.119,0.126,0.1261,0.1263,0.1132,0.1038,0.1074,0.1201,0.1198,0.1196,0.1194,0.1192,0,0.0354,0.0302,0.0271,0.0275,0.0299,0.0375,0.0443,0.0597,0.0704,0.093,0.1021,0.1164,0.1233,0.133,0.1328,0.1322,0.1413,0.1398,0.1343,0.1328,0.1399,0.138,0.1577,0.1577,0.1577,0.1577,0.1577,0,0.0282,0.0264,0.0269,0.0248,0.0333,0.0388,0.0543,0.0646,0.0836,0.0974,0.1114,0.122,0.1302,0.135,0.1385,0.1367,0.1467,0.1381,0.1359,0.1422,0.1406,0.1408,0.1388,0.1577,0.1577,0.1577,0.1577,0,0.0217,0.0186,0.0188,0.0253,0.0294,0.0384,0.0572,0.0671,0.0848,0.1038,0.1114,0.1257,0.1291,0.1314,0.1417,0.1389,0.1417,0.1433,0.1436,0.1408,0.1252,0.1237,0.1355,0.1351,0.1348,0.1346,0.1343,0,0.0123,0.0106,0.0201,0.0251,0.0289,0.0427,0.0505,0.0681,0.0796,0.1043,0.111,0.1214,0.1297,0.1278,0.1325,0.134,0.1371,0.1367,0.1387,0.1281,0.1247,0.1236,0.1225,0.1338,0.1338,0.1337,0.1336,0,0.0014,0.0086,0.0108,0.024,0.0325,0.0411,0.0545,0.062,0.0836,0.0968,0.113,0.1204,0.1231,0.1243,0.1248,0.1285,0.1333,0.1334,0.1342,0.1361,0.1261,0.1229,0.1221,0.1325,0.1326,0.1327,0.1328,0,-0.0026,0.0002,0.0095,0.0243,0.0341,0.0404,0.0464,0.0597,0.0723,0.0987,0.1033,0.1149,0.1244,0.1219,0.1234,0.1213,0.1223,0.1222,0.1236,0.1248,0.1199,0.1056,0.1069,0,0,0,0,0,-0.0063,-0.0009,0.0091,0.0225,0.0341,0.0415,0.0501,0.0559,0.0741,0.0837,0.0959,0.1019,0.1078,0.1119,0.1074,0.1129,0.1173,0.1071,0.1166,0.1264,0.1277,0.1225,0,0,0,0,0,0,-0.0096,-0.0021,0.0069,0.0229,0.0333,0.0414,0.0468,0.0546,0.0624,0.0815,0.0832,0.0988,0.101,0.1107,0.1075,0.108,0.1125,0.114,0.1138,0.1257,0.1268,0.1278,0.123,0,0,0,0,0]},{"header":{"parameterUnit":"m.s-1","parameterCategory":2,"la1":30.2991,"la2":30.254,"lo1":-89.0895,"lo2":-89.0444,"dy":0.0017,"dx":0.0017,"nx":28,"ny":28,"refTime":"2025-07-11T03:00:00:Z","depth":"4","parameterNumber":3,"parameterNumberName":"V-component_of_CURRENTS"},"data":[0,0,0,0,0,0,0,0,0,0,0,0,0,0,0,0,0,0,0,0,0,0,0,0,0,0,0,0,0,0,0,0,0,0,0,0,0,0,0,0,0,0,0,0,0,0,0,0,0,0,0,0,0,0,0,0,0,0,0.0213,0.0215,0,0.0318,0.0318,0.0319,0.0314,0.0313,0.0312,0.0311,0.0282,0.0282,0.0282,0,0,0,0,0,0,0,0,0,0,0,0,0,0.0098,0.0099,0.0213,0.0215,0.0216,0.0317,0.0318,0.032,0.0314,0.0313,0.0311,0.031,0.0282,0.0282,0.0282,0,0,0,0,0,0,0,0,0,0,0,0,0,0.0166,0.01,0.0213,0.0228,0.0231,0.0317,0.0319,0.032,0.0315,0.0313,0.0311,0.0309,0.0281,0.0282,0.0282,0.0322,0,0,0.0284,0.0284,0,0,0,0,0,0,0,0,0.0162,0.017,0.0224,0.0227,0.0231,0.0304,0.0268,0.0315,0.0315,0.028,0.0311,0.0308,0.028,0.0281,0.0302,0.0321,0.032,0.0284,0.0284,0.0285,0.0285,0,0,0,0,0,0,0,0.0158,0.0166,0.0251,0.0226,0.023,0.026,0.0267,0.0277,0.0284,0.0283,0.0283,0.03,0.028,0.0301,0.0301,0.0319,0.0284,0.0285,0.0285,0.0285,0.0314,0.0314,0,0,0,0,0,0,0.0149,0.0162,0.0248,0.0255,0.0195,0.0264,0.0271,0.0279,0.0287,0.0288,0.0302,0.03,0.0301,0.03,0.0299,0.0307,0.0285,0.0285,0.0286,0.0314,0.0314,0.0315,0,0,0,0,0,0,0.0146,0.0155,0.0244,0.0213,0.0227,0.0267,0.0277,0.0283,0.0317,0.0303,0.0301,0.0332,0.03,0.0299,0.0319,0.0307,0.0285,0.0286,0.0313,0.0314,0.0314,0.0347,0,0,0,0,0,0,0.0142,0.0153,0.0161,0.0213,0.0229,0.0309,0.028,0.0286,0.0331,0.0329,0.0328,0.0323,0.0298,0.0319,0.032,0.0307,0.0286,0.0312,0.0313,0.0314,0.0345,0.0348,0.0351,0,0,0,0,0,0.0137,0.0166,0.016,0.0172,0.0236,0.0311,0.0323,0.0343,0.0334,0.0364,0.0355,0.0324,0.0323,0.0322,0.0322,0.0309,0.0312,0.0313,0.0314,0.0344,0.0348,0.0351,0,0,0,0,0,0,0.0122,0.0171,0.0165,0.0205,0.0256,0.0311,0.0348,0.0362,0.0385,0.0376,0.0353,0.0349,0.035,0.0341,0.0339,0.0318,0.0304,0.0305,0.0326,0.033,0.0333,0.0325,0.0287,0,0,0,0,0,0.0122,0.0151,0.0203,0.0235,0.0264,0.0308,0.0342,0.0358,0.0387,0.0397,0.0397,0.038,0.0357,0.0355,0.0343,0.0358,0.0321,0.0342,0.0346,0.0348,0.0343,0.0254,0.0248,0.0318,0.0318,0.0318,0,0,0.0126,0.0156,0.0172,0.0234,0.0273,0.0325,0.0324,0.0387,0.0417,0.0388,0.0427,0.0401,0.0365,0.0362,0.036,0.0352,0.0322,0.035,0.0352,0.0345,0.0255,0.0247,0.0241,0.0319,0.0318,0.0318,0,0,0.0165,0.0176,0.0222,0.0267,0.0333,0.0354,0.0377,0.0442,0.0456,0.0506,0.0456,0.0426,0.0451,0.0388,0.0364,0.0384,0.034,0.0384,0.0395,0.031,0.0302,0.0295,0.029,0.0282,0.0385,0.0385,0.0386,0,0.0164,0.0223,0.025,0.0311,0.0346,0.0369,0.0425,0.0452,0.051,0.0505,0.0524,0.0473,0.0451,0.0377,0.0384,0.0385,0.0363,0.0383,0.0311,0.0303,0.0295,0.029,0.0281,0.0387,0.0387,0.0387,0.0387,0,0.0244,0.029,0.0329,0.0389,0.0427,0.0488,0.0519,0.0545,0.0563,0.0569,0.054,0.0505,0.0467,0.0443,0.0432,0.035,0.0365,0.0323,0.0297,0.0289,0.0287,0.0276,0.039,0.0389,0.0388,0.0388,0,0,0.0239,0.036,0.0368,0.0406,0.0474,0.051,0.0544,0.0569,0.0568,0.0588,0.0574,0.0519,0.0488,0.0457,0.0405,0.033,0.028,0.032,0.0315,0.031,0.0152,0.0193,0.0186,0.0222,0.0219,0.0217,0.0191,0,0.0291,0.0403,0.0444,0.0523,0.058,0.0593,0.0615,0.0622,0.0629,0.0622,0.0544,0.0525,0.0496,0.0477,0.0395,0.0281,0.0247,0.0295,0.0165,0.0163,0.0191,0.0171,0.0208,0.0183,0.018,0.0179,0.0177,0,0.0359,0.0416,0.0522,0.058,0.0602,0.0646,0.0649,0.0683,0.0651,0.0654,0.0598,0.0555,0.0445,0.0442,0.0254,0.0288,0.025,0.0175,0.0171,0.0182,0.0181,0.0179,0.0158,0.016,0.0161,0.0162,0.0163,0,0.0351,0.0461,0.054,0.0574,0.0647,0.0676,0.0703,0.0693,0.0706,0.0683,0.0662,0.0543,0.0474,0.0366,0.0249,0.0251,0.006,0.0036,0.0047,0.0053,0.001,0.0017,-0.0053,-0.0053,-0.0053,-0.0052,-0.0052,0,0.04,0.0453,0.0553,0.0601,0.0657,0.0702,0.0754,0.0752,0.075,0.0742,0.0686,0.0625,0.0446,0.0326,0.0248,0.0115,0.0064,0.0049,0.0028,0.0036,0.0046,0.0007,0.0014,-0.0053,-0.0053,-0.0053,-0.0053,0,0.0403,0.0482,0.0567,0.0651,0.0681,0.0729,0.0812,0.0819,0.0821,0.0806,0.08,0.0656,0.049,0.0342,0.0149,0.0103,-0.0014,-0.0019,0.0054,0.0038,0.0052,0.0062,-0.003,-0.0029,-0.0028,-0.0028,-0.0027,0,0.0424,0.048,0.0594,0.0645,0.0704,0.079,0.0827,0.0866,0.0868,0.0819,0.0776,0.0634,0.0538,0.0291,0.0146,0.0008,0.0002,-0.001,-0.0025,0.0055,0.0044,0.0053,0.0061,-0.0026,-0.0026,-0.0026,-0.0026,0,0.0428,0.0481,0.0533,0.066,0.0735,0.0788,0.0847,0.0855,0.0875,0.0868,0.0769,0.0669,0.0478,0.029,0.0192,0.0094,-0.0001,-0.0004,-0.0007,-0.0021,0.0058,0.0048,0.0056,-0.0024,-0.0024,-0.0024,-0.0024,0,0.0402,0.044,0.0539,0.0641,0.0729,0.076,0.0801,0.0808,0.0824,0.0785,0.0757,0.06,0.0509,0.0338,0.024,0.0141,0.0115,0.0118,0.0109,0.0105,0.0145,0.0265,0.0223,0,0,0,0,0,0.0383,0.0429,0.0511,0.061,0.0693,0.0754,0.0785,0.081,0.0842,0.0782,0.0786,0.0644,0.0479,0.0377,0.028,0.0224,0.0079,0.0113,0.0072,-0.0012,-0.0014,0.0011,0,0,0,0,0,0,0.0371,0.044,0.0492,0.0572,0.0641,0.0708,0.0737,0.0742,0.0717,0.0742,0.063,0.0657,0.0454,0.0527,0.0285,0.0254,0.0229,0.0042,0.0042,-0.001,-0.0012,-0.0014,0.001,0,0,0,0,0]}]]